Regional Weather Roundup
Issued by NWS Sterling, VA

Home | Current Version | Previous Version | Text Only | Print | Product List | Glossary Off
Versions: 1 2 3 4 5 6 7 8 9 10 11 12 13 14 15 16 17 18 19 20 21 22 23 24 25 26 27

000
ASUS41 KLWX 301710
RWRLWX

REGIONAL WEATHER ROUNDUP
NATIONAL WEATHER SERVICE BALTIMORE MD/WASHINGTON DC
100 PM EDT THU OCT 30 2014

Note: "FAIR" indicates few or no clouds below 12,000 feet
with no significant weather and/or obstructions to visibility.
 TC=TEMPERATURE CELSIUS

 * =Non NWS site. Station does not report precipitation (e.g. rain,
    snow, etc.), thunder, or fog.

DCZ001-MDZ009-015-VAZ040>042-051-053>054-301800-
WASHINGTON METRO

CITY           SKY/WX    TMP DP  RH WIND       PRES   REMARKS
WASHINGTON NAT MOSUNNY   61  38  42 NW10      30.06F
DULLES         MOSUNNY   56  37  49 NW8       30.06F
ANDREWS AFB    SUNNY     58  37  46 NW14      30.04F
FT BELVOIR     SUNNY     59  37  42 NW17      30.06F
QUANTICO       MOSUNNY   61  36  39 N9        30.06F
COLLEGE PARK*  MOSUNNY   59  37  44 NW7       30.05F
LEESBURG*      MOSUNNY   57  43  58 NW10      30.07F
MANASSAS*      MOSUNNY   57  37  47 NW7       30.07
GAITHERSBURG*  PTSUNNY   55  39  54 W10       30.09S

$$

MDZ006>007-011-014-301800-
BALTIMORE METRO

CITY           SKY/WX    TMP DP  RH WIND       PRES   REMARKS
BWI AIRPORT    MOSUNNY   56  38  50 N6        30.04F
MD SCIENCE CTR   N/A     57  37  47 MISG      30.04F
MARTIN STATE   MOSUNNY   59  43  55 W14       30.05F
ANNAPOLIS      SUNNY     57  39  51 NW8       30.04F
FORT MEADE*    MOSUNNY   59  37  44 NW8       30.07F

$$

MDZ012-015-019>023-301800-
MARYLAND EASTERN SHORE

CITY           SKY/WX    TMP DP  RH WIND       PRES   REMARKS
OCEAN CITY     MOSUNNY   60  43  53 VRB3      30.01F
SALISBURY      SUNNY     63  41  44 N7        30.02F
BAY BRIDGE AP*   N/A     57  36  44 NW8       30.05F
CAMBRIDGE*     SUNNY     59  37  44 NW10      30.03F
EASTON*        MOSUNNY   59  41  51 NW8       30.07F

$$

MDZ017>025-301800-
SOUTHERN MARYLAND

CITY           SKY/WX    TMP DP  RH WIND       PRES   REMARKS
PATUXENT RIVER MOSUNNY   59  40  49 NE10      30.04F
ST INIGOES     SUNNY     59  37  44 VRB7      30.03F
LEONARDTOWN*   SUNNY     57  34  41 N5        30.05F

$$

MDZ003>005-301800-
NORTH CENTRAL MARYLAND

CITY           SKY/WX    TMP DP  RH WIND       PRES   REMARKS
FREDERICK*     PTSUNNY   61  37  41 N6        30.09F
HAGERSTOWN APT CLOUDY    54  38  54 NW13      30.06F
WESTMINSTER*   CLOUDY    52  39  62 NW5       30.05S

$$

MDZ501>502-301800-
WESTERN MARYLAND

CITY           SKY/WX    TMP DP  RH WIND       PRES   REMARKS
OAKLAND*       CLOUDY    39  34  81 NW5       30.06S
CUMBERLAND*    CLOUDY    52  34  50 NW3       30.12F

$$

VAZ025>031-301800-
SHENANDOAH VALLEY

CITY           SKY/WX    TMP DP  RH WIND       PRES   REMARKS
WINCHESTER*    CLOUDY    55  30  38 NW8G17    30.07F
FRONT ROYAL*   CLOUDY    52  36  54 N7        30.07F
LURAY*         CLOUDY    54  36  50 NW7       30.08F
NEW MARKET*    CLOUDY    50  34  54 CALM      30.09F
STAUNTON*      CLOUDY    51  36  57 NE8       30.10F
WAYNESBORO*    CLOUDY    50  37  61 N6        30.08S

$$

WVZ021-048>050-054>055-301800-
EASTERN WEST VIRGINIA PANHANDLE

CITY           SKY/WX    TMP DP  RH WIND       PRES   REMARKS
MARTINSBURG    CLOUDY    55  33  43 N7        30.07F
PETERSBURG*    CLOUDY    51  32  47 CALM      30.10F

$$

VAZ036>039-050-301800-
CENTRAL FOOTHILLS

CITY           SKY/WX    TMP DP  RH WIND       PRES   REMARKS
CHARLOTTESVILL CLOUDY    56  35  45 N9        30.07F
CULPEPER*      MOSUNNY   59  37  44 N9        30.07F
ORANGE*        MOSUNNY   57  36  44 NW10G16   30.08F
GORDONSVILLE*  CLOUDY    55  36  47 N7        30.06F
WARRENTON*     PTSUNNY   60  44  54 N7        30.07F

$$

VAZ055>057-301800-
NORTH AND CENTRAL PIEDMONT

CITY           SKY/WX    TMP DP  RH WIND       PRES   REMARKS
FREDERICKSBRG* SUNNY     61  35  38 NW12      30.05F
STAFFORD*      SUNNY     59  34  39 NW12      30.09F

$$

NCZ024-NYZ072-PAZ021-071-VAZ022-071-301800-
OTHER REGIONAL OBSERVATIONS

CITY           SKY/WX    TMP DP  RH WIND       PRES   REMARKS
NEW YORK CITY  MOSUNNY   57  35  43 VRB3      30.01S
PHILADELPHIA   MOSUNNY   58  39  49 N8        30.02F
PITTSBURGH     PTSUNNY   48  37  65 NW3       30.09F
ROANOKE        MOSUNNY   58  34  40 VRB6      30.08F
RICHMOND       MOSUNNY   63  39  41 NE9       30.04F
RALEIGH        MOSUNNY   65  40  39 NE6       30.03F

$$

ANZ530>537-301800-
MARINE OBSERVATIONS

STATION/POSITION TIME  TEMP    WIND        PRES
                       AIR SEA DIR/SP/G
                 (UTC) (F)     (DEG/KT/KT) (MB)
THOMAS PT LIGHT  1700   55 62  360/  9/ 11 1018.1F
BALT KEY BRIDGE  1700   56     280/  5/  6 1017.1F
COVE POINT       1700   54      20/  7/ 10 1017.2F
LEWISETTA        1700   56 62  340/  9/ 11 1017.0F
SOLOMONS ISLAND  1700      63                N/A
PINEY POINT      1700          320/  8/ 10   N/A

$$




USA.gov is the U.S. government's official web portal to all federal, state and local government web resources and services.